Regional Weather Roundup
Issued by NWS Jackson, KY

Home | Current Version | Previous Version | Graphics & Text | Print | Product List | Glossary On
Versions: 1 2 3 4 5 6 7 8 9 10 11 12 13 14 15 16 17 18 19 20 21 22 23 24 25 26 27 28 29 30 31 32 33 34 35 36 37 38 39 40 41 42 43 44 45 46 47 48 49 50
000
ASUS43 KJKL 051010
RWRJKL

EAST KENTUCKY HOURLY WEATHER ROUNDUP
NATIONAL WEATHER SERVICE JACKSON KY
600 AM EDT SUN JUL 05 2015

NOTE: "FAIR" INDICATES FEW OR NO CLOUDS BELOW 12,000 FEET WITH
NO SIGNIFICANT WEATHER AND/OR OBSTRUCTIONS TO VISIBILITY.

* THESE REPORTS ARE NOT UNDER NWS QUALITY CONTROL AND MAY NOT
  REPORT WEATHER SUCH AS PRECIPITATION AND FOG.

KYZ079-080-083-085-087-088-110-112-115-119-120-051100
...EASTERN KENTUCKY...

CITY           SKY/WX    TMP DP  RH WIND       PRES   REMARKS
JACKSON        LGT RAIN  69  67  93 CALM      30.07R FOG
LONDON         LGT RAIN  67  63  87 CALM      30.07R
SOMERSET*      LGT RAIN  64  64 100 CALM      30.06S
MONTICELLO*    CLOUDY    68  68 100 CALM      30.07S FOG
MIDDLESBORO*   RAIN      67  67 100 CALM      30.08R
HARLAN APT*      N/A     66  66 100 CALM      30.09S
HAZARD APT*    LGT RAIN  68  68 100 CALM      30.08R
BLACK MTN*       N/A     61  61 100 S5          N/A
PIKEVILLE APT* CLOUDY    66  66 100 SE3       30.09R
BIG SANDY*     FOG       66  66 100 CALM      30.07S VSB<1/4
MOREHEAD APT*  CLOUDY    68  55  64 E5        30.09R
$$

KYZ035-036-041-042-044-050-067-078-099-051100
...CENTRAL KENTUCKY...

CITY           SKY/WX    TMP DP  RH WIND       PRES   REMARKS
MT STERLING*   CLOUDY    66  66 100 E3        30.08R FOG
FLEMING/MASON* CLEAR     63  61  94 E5        30.09R
DANVILLE*      CLOUDY    68  68 100 CALM      30.06R FOG
RICHMOND*      CLOUDY    68  66  94 CALM      30.05R
LEXINGTON      CLOUDY    69  66  90 NE7       30.06R
FRANKFORT      MOCLDY    69  65  86 CALM      30.05R FOG
$$

KYZ091>093-OHZ055-061-077-WVZ005-015-034-035-042-051100
...SOUTHERN OHIO/WEST VIRGINIA...

CITY           SKY/WX    TMP DP  RH WIND       PRES   REMARKS
COVINGTON      CLOUDY    67  59  75 E3        30.08R
COLUMBUS       CLOUDY    63  55  75 CALM      30.10R
DAYTON         MOCLDY    63  59  87 CALM      30.11R
WILMINGTON     CLOUDY    60  55  83 CALM      30.09R
HUNTINGTON     FOG       63  63 100 CALM      30.06S VSB 1
CHARLESTON     FOG       65  64  97 CALM      30.09R VSB 1/2
PINEVILLE*     CLOUDY    65  65 100 MISG      30.16S
BECKLEY        MOCLDY    61  59  93 CALM      30.15R FOG
BLUEFIELD      LGT RAIN  66  62  87 SE3       30.17R FOG
$$

VAZ002-007-008-TNZ017-027-036-066-071-051100
...SOUTHWEST VIRGINIA/EAST TENNESSEE...

CITY           SKY/WX    TMP DP  RH WIND       PRES   REMARKS
WISE*          RAIN      64  64 100 S3        30.15S
JONESVILLE*      N/A    N/A N/A N/A MISG        N/A
ABINGDON*      LGT RAIN  68  68 100 E5        30.13S
BRISTOL        LGT RAIN  68  67  96 CALM      30.10S FOG
KNOXVILLE      CLOUDY    69  67  93 N3        30.04R
OAK RIDGE      RAIN      69  67  93 CALM      30.05R FOG
CROSSVILLE     RAIN      67  64  90 NW3       30.07R FOG
NASHVILLE      CLOUDY    69  69 100 NW6       30.04R
$$

...KEY TO REMARKS...
VSB - VISIBILITY IN MILES
WCI - WIND CHILL INDEX
HX  - HEAT INDEX

$$



USA.gov is the U.S. government's official web portal to all federal, state and local government web resources and services.